Location: Caltech
(34.1382°N, 118.1253°W)
Time: 15:37:24
(UTC-07:00)

CZ-2C R/B - Visible Passes

Search period start: 23 May 2017 00:00
Search period end: 02 June 2017 00:00
Orbit: 705 x 907 km, 98.2° (Epoch: 22 May)

Date Brightness Start Highest point End Pass type
(mag) Time Alt. Az. Time Alt. Az. Time Alt. Az.
23 May 4.5 00:44:56 35° NNW 00:44:56 35° NNW 00:48:09 10° NNW visible
24 May 4.3 00:19:47 41° N 00:19:47 41° N 00:23:25 10° N visible
24 May 4.4 23:54:39 34° NE 23:54:39 34° NE 23:58:24 10° N visible
25 May 5.3 01:35:42 16° WNW 01:35:42 16° WNW 01:37:22 10° NW visible
25 May 4.9 23:29:30 23° NE 23:29:30 23° NE 23:33:05 10° NNE visible
26 May 4.8 01:10:34 26° NW 01:10:34 26° NW 01:13:23 10° NNW visible
26 May 5.3 23:04:22 14° ENE 23:04:22 14° ENE 23:07:08 10° NNE visible
27 May 4.3 00:45:25 39° NNW 00:45:25 39° NNW 00:48:59 10° NNW visible
28 May 4.1 00:20:17 46° N 00:20:17 46° N 00:24:16 10° N visible
28 May 4.3 23:55:09 37° NE 23:55:09 37° NE 23:59:17 10° N visible
29 May 5.3 01:36:13 17° WNW 01:36:13 17° WNW 01:38:09 10° NW visible
29 May 4.8 23:30:01 25° ENE 23:30:01 25° ENE 23:34:00 10° NNE visible
30 May 4.7 01:11:05 28° NW 01:11:05 28° NW 01:14:13 10° NNW visible
30 May 5.3 23:04:53 15° ENE 23:05:02 15° ENE 23:08:09 10° NNE visible
31 May 4.2 00:45:57 42° NW 00:45:57 42° NW 00:49:49 10° NNW visible
01 Jun 3.9 00:20:49 51° N 00:20:49 51° N 00:25:07 10° N visible
